SES-15

Last updated on Tue Oct 15 2024 00:02:40 GMT+0000 (Coordinated Universal Time)

1 42709U 17026A 24287.69301976 .00000058 00000+0 00000+0 0 9993 2 42709 0.0112 90.0752 0000428 89.4086 323.6064 1.00270049 1312
UTC large
Height (km)
Speed (km/s)
/
Latitude / Longitude
Inclination (degrees)
Orbital Period (minutes)
Azimuth
Elevation
Range (km)
Doppler Factor

Next 0 passes for location: London (51.5072 / 0.1276)

Sorry there are no passes over London.